STARLINK-1656 (46353 NORAD) Tracking and Keplerian Element Data

This shows tracking and keplerian element data for the satellite.

Feedback or suggestion? Click here.




ElementValue
Catalog46353
NameSTARLINK-1656
Epoch Orbit402
Epoch Day267.83334491
Epoch Year2020
RAAN329.8531
Inclination53.0016
Eccentricity0.0001323
Argument of Perigee67.9478
Mean Anonmoly140.8985
Mean Motion15.62805118
Decay Rate-0.00127578
L11 46353U 20062AE 20267.83334491 -.00127578 00000-0 -14065-2 0 9993
L22 46353 53.0016 329.8531 0001323 67.9478 140.8985 15.62805118 4027

Live tracking and technical data element details for STARLINK-1656 (NORAD 46353). STARLINK-1656 can be tracked NOW for your location showing map with azimuth and elevation plus other details from your city location.

Track the satellite on the map from your city or location and see movement details for azimuth, elevation, latitude, longitude, range, height, and movement on the map or in text.







IsCatalogInMostPopularTable: catalog: 46353, numindb: 2
Update: records affected: 1



GetName: 46353 STARLINK-1656

Hit Count: updated at: Thu, 24 Sep 2020 17:25:17 GMT